GFSMA_sfc_rhum_000.txt.gz
RH
97 94 94 95 95 94 91 91 94 93 90 86 86 86 83 87 82 76 76 78 84 80 73 74 73 76 72 71 69 74 73 71 72 72 72 71 73 74 74 72 71 73 75
98 96 96 93 92 95 89 94 93 91 87 85 86 84 83 82 86 80 74 81 79 82 80 76 75 76 75 73 72 73 73 75 76 75 77 80 78 78 78 75 73 72 77
98 97 98 96 95 90 90 91 90 87 85 83 86 84 83 85 84 84 78 84 82 80 80 81 81 78 78 75 72 74 78 78 81 79 79 80 80 81 82 81 79 79 81
94 96 98 97 95 95 91 92 90 87 88 88 89 85 86 85 85 82 79 77 86 81 84 81 82 80 77 75 75 78 79 80 80 81 83 82 82 83 82 83 83 84 85
90 96 98 97 94 97 97 93 91 93 93 89 86 85 86 87 87 76 83 83 79 80 74 78 83 80 74 69 75 79 80 81 83 83 82 85 85 85 85 85 87 88 88
90 96 97 96 96 97 95 96 96 95 94 93 86 84 86 85 85 82 79 76 79 79 76 82 89 86 82 75 75 77 77 80 84 84 84 85 86 87 86 86 87 87 89
93 95 98 94 96 95 93 93 94 96 93 94 97 89 86 80 79 76 76 74 68 68 79 87 92 92 86 84 82 78 76 76 79 82 85 86 88 89 90 89 90 89 88
93 91 94 93 94 94 92 91 95 95 95 96 97 98 95 77 74 72 75 75 74 72 70 78 84 84 87 90 87 84 82 79 78 79 81 86 88 88 89 92 92 92 90
91 92 92 93 91 92 91 90 90 94 94 95 95 96 95 93 96 77 78 76 83 87 87 84 80 82 86 88 86 86 86 90 82 77 79 81 85 88 89 91 92 92 92
88 87 88 87 88 92 91 91 92 94 95 95 96 96 94 94 97 92 75 76 74 71 84 88 86 84 86 87 80 86 92 92 88 84 79 78 79 84 87 90 91 92 93
82 83 85 87 90 88 90 91 91 94 95 96 96 96 95 96 96 97 92 78 72 84 82 87 85 85 82 81 82 78 76 84 86 87 88 84 81 79 80 84 90 91 92
84 85 84 91 90 89 88 86 88 90 93 95 96 96 96 94 95 96 96 92 90 77 86 83 84 82 76 84 64 71 73 78 82 83 86 87 88 84 78 79 82 87 89
87 90 91 89 85 85 86 87 89 89 90 92 94 96 96 96 95 96 96 95 96 82 89 74 85 85 71 84 77 69 70 78 82 84 85 87 90 90 87 84 80 81 85
84 88 85 84 81 81 82 85 84 84 89 92 91 95 96 95 96 96 95 96 87 86 80 74 71 84 82 71 70 71 70 80 82 82 83 86 88 91 91 89 87 83 80
80 84 82 82 78 78 84 83 83 86 87 88 90 90 88 87 84 92 95 95 92 86 73 69 75 72 70 70 72 69 73 77 79 82 84 87 88 90 93 92 89 87 87
82 82 82 81 81 82 84 87 85 84 87 82 86 89 92 92 86 85 85 93 95 93 92 75 71 73 72 70 71 72 71 76 78 83 85 87 86 85 90 92 92 90 88
84 84 84 82 83 83 84 87 88 86 88 90 89 91 90 91 90 88 88 89 94 96 93 74 76 74 81 81 78 77 73 76 70 78 79 80 82 83 86 90 94 93 91
85 84 84 85 85 85 86 86 85 83 86 88 88 89 87 80 91 90 89 94 95 94 96 95 81 77 83 83 84 85 76 64 68 68 78 80 82 85 88 90 95 95 93
84 82 84 86 85 83 82 83 86 86 87 87 87 88 87 86 89 88 93 95 96 93 97 96 86 77 78 75 80 81 82 77 68 68 74 75 76 82 86 88 95 97 96
83 84 84 82 81 79 78 80 83 86 87 83 86 88 86 87 89 91 93 95 95 97 97 97 87 82 80 79 78 79 74 66 68 57 62 68 72 75 80 84 89 97 98
82 83 83 82 81 76 66 82 84 86 86 85 88 86 85 86 87 92 95 94 95 97 97 93 86 83 81 79 81 73 76 71 71 65 63 60 61 64 67 77 82 90 96
86 84 83 82 82 71 79 84 84 82 86 87 84 84 83 79 83 86 88 91 94 95 96 92 83 88 88 84 78 78 75 77 80 61 66 67 65 70 66 66 74 91 95
84 82 84 83 83 83 86 86 86 89 85 82 87 89 84 85 87 83 85 88 90 93 95 96 96 93 92 85 85 87 86 86 83 70 76 81 71 73 67 60 76 81 96
88 86 86 86 84 82 85 89 89 90 90 84 86 86 90 88 82 86 86 87 83 83 83 75 86 85 86 87 89 87 92 94 88 85 73 98 78 76 69 67 75 83 96
90 91 90 89 90 90 93 93 93 94 90 90 86 84 84 89 89 92 85 87 86 82 81 88 89 90 90 92 91 94 96 97 97 82 72 87 80 78 76 73 64 84 92
93 95 94 93 97 95 95 100 98 96 90 84 88 90 88 86 94 92 85 89 92 83 82 82 79 82 82 82 90 92 96 99 98 98 76 91 85 89 97 79 69 81 90

GFSMA_sfc_rhum_003.txt.gz
RH
72 70 68 67 68 64 61 64 67 66 66 58 58 61 58 62 61 52 54 72 80 80 74 74 72 72 71 69 72 75 73 73 73 76 72 74 74 73 73 71 71 71 71
71 86 73 81 62 64 60 66 68 65 63 60 57 59 58 56 65 65 52 55 78 78 78 76 74 74 72 72 70 70 76 77 78 76 78 78 77 77 76 74 73 71 75
83 74 88 85 64 67 73 68 68 65 59 57 60 56 56 60 56 66 60 56 55 73 78 76 80 79 75 75 75 76 77 80 81 80 80 80 82 81 80 80 80 78 78
74 79 88 82 72 69 63 64 64 62 61 60 61 58 57 56 62 62 57 58 56 49 63 76 78 80 78 70 73 76 79 81 82 83 82 82 82 82 83 83 84 82 82
77 87 84 80 77 66 82 67 65 70 64 60 58 55 54 55 57 47 58 59 58 56 49 69 81 80 72 66 74 75 78 81 81 82 83 84 83 83 84 84 84 84 85
73 74 76 76 74 80 68 70 79 71 69 66 59 54 56 53 52 51 51 46 46 54 57 65 60 56 79 73 75 76 77 78 81 82 83 84 85 86 86 86 87 86 88
76 81 83 78 76 70 72 77 71 76 61 68 64 50 54 55 51 49 45 40 41 42 49 58 61 60 55 82 84 82 76 76 78 80 83 85 85 87 89 89 89 88 88
76 76 77 72 74 64 77 76 79 66 65 68 65 69 51 53 49 45 42 34 44 38 42 50 58 65 64 59 70 79 82 84 80 77 80 83 84 86 88 91 91 90 89
76 76 75 70 74 68 58 72 71 78 64 71 76 65 55 51 52 47 50 39 45 40 42 48 55 59 60 52 56 60 83 91 87 82 80 82 82 83 85 88 91 92 92
72 72 74 71 74 62 72 68 68 73 76 66 65 68 72 68 55 49 42 41 39 36 46 40 43 49 51 43 54 70 78 81 80 79 82 82 82 83 83 84 85 88 93
74 67 69 70 73 63 74 72 76 78 67 64 62 64 68 62 70 56 47 42 39 40 40 40 41 40 45 45 41 57 73 76 75 75 73 76 79 81 80 80 82 85 87
65 70 65 70 72 71 72 66 73 75 73 71 68 65 56 51 50 53 52 52 52 45 44 40 40 41 42 42 42 63 67 72 75 74 74 74 74 76 80 80 78 80 84
64 66 71 73 66 75 69 68 73 72 71 67 74 57 58 56 55 56 58 52 56 47 47 44 40 42 43 44 45 60 65 77 81 82 82 78 76 76 76 80 80 82 80
62 64 67 67 71 68 65 70 58 55 66 64 72 72 58 57 58 59 60 60 55 49 48 60 42 41 44 45 54 68 47 72 80 83 85 84 83 80 79 79 83 86 86
57 64 64 68 66 63 66 69 52 60 66 68 65 68 61 54 55 57 63 60 60 61 53 45 50 47 50 47 53 56 55 67 79 83 84 86 86 85 85 83 86 90 92
64 66 66 64 63 63 63 70 59 60 67 55 56 70 72 56 59 72 69 60 62 60 60 42 46 51 55 56 56 58 56 74 73 78 83 84 86 84 83 83 84 87 91
70 68 68 64 62 63 65 70 70 62 64 65 68 71 71 76 62 56 61 67 60 62 65 49 44 56 71 69 63 60 57 58 48 73 80 82 83 82 83 83 84 86 88
70 67 66 66 65 62 63 68 65 55 63 64 63 68 66 57 74 71 60 72 65 66 66 73 62 54 64 66 68 71 61 49 50 58 77 80 80 82 85 85 85 88 90
82 65 68 71 67 64 66 68 67 62 64 65 64 65 64 67 72 58 66 61 56 75 65 72 61 50 52 54 60 64 64 62 52 62 73 79 80 79 78 80 82 89 92
82 84 78 76 68 65 63 60 60 66 66 62 65 64 65 69 69 69 65 71 69 66 66 65 61 53 50 56 56 58 53 45 47 43 53 60 68 65 72 76 80 83 89
95 82 80 78 71 63 50 63 64 66 68 65 63 68 65 70 77 75 58 66 72 64 54 54 57 50 49 48 55 49 54 51 53 47 45 44 41 42 44 56 61 72 82
90 84 79 79 80 64 72 79 73 63 66 70 69 64 68 79 78 85 86 88 83 75 77 65 54 61 71 61 54 59 56 56 55 44 55 53 46 46 44 47 62 71 75
94 84 80 79 79 78 83 86 87 63 65 69 81 75 66 51 73 63 71 81 84 89 91 84 82 78 76 69 77 74 71 71 69 57 60 58 48 50 52 51 70 74 76
85 81 79 79 77 70 89 91 94 76 89 82 73 73 71 69 67 70 65 64 63 64 68 58 66 69 69 68 72 73 82 90 75 58 63 57 49 54 57 57 68 74 78
81 85 76 80 79 80 94 94 92 88 86 89 80 74 75 72 84 90 72 70 68 65 71 85 85 88 90 91 86 76 81 70 72 57 50 67 65 72 74 70 61 71 78
89 76 79 81 85 84 99 98 96 99 97 96 80 81 86 79 91 92 73 70 72 66 66 64 61 65 72 68 82 74 75 95 85 73 67 83 94 90 98 72 60 60 58

GFSMA_sfc_rhum_006.txt.gz
RH
62 51 55 55 54 45 42 48 49 50 53 46 44 43 37 38 42 38 37 72 74 74 75 71 71 74 73 72 75 73 73 72 71 71 70 71 76 73 71 70 69 72 72
68 49 50 48 48 46 44 48 54 54 51 45 43 42 40 35 41 46 36 41 72 73 73 73 72 74 72 73 70 72 75 76 77 75 77 80 79 79 74 72 72 72 73
66 62 49 51 48 56 63 55 57 52 44 41 42 37 38 40 38 44 40 34 40 74 72 72 79 80 77 72 75 74 77 79 81 80 81 81 81 80 80 79 78 78 79
62 60 50 49 47 52 52 48 51 47 41 40 39 38 38 38 42 42 39 40 34 31 65 72 71 78 78 71 72 78 79 78 80 82 82 82 82 82 84 83 83 83 83
58 57 52 50 58 52 72 64 48 50 43 38 36 33 38 38 39 30 42 44 44 38 32 73 70 72 68 66 73 76 79 81 81 81 82 84 83 83 83 84 84 85 86
58 64 54 57 58 68 51 50 61 46 49 43 36 34 40 38 38 36 36 32 38 40 40 51 45 47 70 70 72 77 78 80 81 81 82 82 84 86 85 85 86 86 86
60 63 51 60 61 58 56 57 50 52 41 43 42 35 39 42 40 37 34 28 33 32 40 45 46 47 49 73 81 81 79 76 79 82 83 82 84 85 87 88 88 89 88
63 61 64 58 62 45 60 57 58 45 41 43 45 42 37 39 36 32 32 28 33 27 32 40 48 57 52 52 64 81 82 84 81 80 81 84 84 84 85 88 89 90 90
63 67 65 56 60 51 37 55 54 57 42 49 56 46 39 36 35 35 40 31 36 30 31 34 41 45 48 42 47 57 76 79 78 79 80 81 85 86 84 85 87 88 90
59 62 63 60 57 42 54 52 48 54 59 45 42 46 56 56 39 36 33 33 32 31 39 30 30 37 41 33 51 72 73 71 70 69 69 73 77 82 82 85 86 88 88
61 54 62 57 56 46 58 59 58 62 48 46 41 41 51 41 49 41 36 33 32 32 33 32 32 29 35 36 32 54 66 68 69 67 67 67 69 70 74 79 83 85 86
50 60 61 59 56 52 58 55 59 60 59 55 46 49 39 39 37 38 36 39 38 35 33 33 34 30 30 32 35 56 56 66 69 69 70 71 70 70 70 70 74 78 80
41 57 67 63 50 60 56 57 61 56 58 53 61 42 39 39 37 38 39 38 37 35 35 35 35 34 32 34 35 57 62 71 76 79 79 76 74 72 71 70 72 74 77
38 48 64 57 55 54 56 56 46 46 52 50 58 58 42 38 36 37 39 42 43 37 35 49 40 33 34 35 45 66 46 68 71 77 81 84 80 77 74 73 73 73 73
38 51 58 57 51 54 54 57 45 52 51 53 51 55 49 35 33 35 38 44 47 46 38 34 34 37 37 35 46 46 49 63 75 77 81 83 82 82 80 78 79 80 79
58 54 57 52 52 54 54 60 49 52 56 42 38 49 55 40 38 38 39 38 39 43 46 34 33 37 40 42 48 50 49 70 69 77 83 82 83 83 82 81 82 82 83
63 60 61 56 53 54 56 61 59 50 51 54 51 55 59 61 45 37 35 36 38 39 45 39 35 40 52 54 51 50 48 49 43 74 79 82 83 82 81 80 81 82 83
66 66 65 63 66 52 55 59 57 47 50 52 52 57 56 45 58 60 44 56 48 50 46 67 54 44 54 51 52 58 49 39 41 53 77 78 78 79 80 82 84 84 85
78 73 72 76 70 71 56 58 59 57 53 51 52 55 55 54 60 49 53 46 40 42 45 44 48 42 41 40 48 63 54 52 40 55 69 69 73 76 80 83 84 85 86
75 86 81 83 66 62 63 60 55 57 54 50 54 56 57 56 58 59 54 59 57 53 52 46 48 41 57 53 52 53 42 33 33 30 46 54 57 59 76 79 79 78 83
72 75 76 69 68 65 60 61 56 52 56 56 55 54 55 60 68 67 47 56 62 52 46 48 43 40 47 55 63 40 41 38 44 38 35 32 29 32 36 53 52 65 80
73 77 73 66 66 58 62 74 62 53 56 59 60 60 66 75 80 86 87 86 78 68 66 50 48 49 64 64 47 44 47 47 51 38 44 37 37 39 36 35 50 66 70
77 66 65 66 68 67 77 78 80 51 53 57 65 70 70 69 78 58 78 88 87 87 86 71 73 66 77 66 64 80 66 59 54 42 53 51 41 41 37 32 54 73 80
70 70 69 70 66 59 85 90 86 63 64 63 66 69 73 84 83 65 64 57 58 58 59 56 65 61 61 63 67 64 68 69 65 54 61 58 40 38 39 40 61 69 73
66 65 66 68 70 67 92 90 90 57 59 68 84 78 82 87 89 82 65 63 62 58 65 80 83 82 83 85 80 60 55 61 62 58 50 46 42 46 50 59 61 71 76
67 57 64 67 69 74 94 90 86 50 73 63 91 90 91 84 86 88 68 62 62 57 54 56 54 62 73 58 86 72 68 86 80 67 48 50 52 69 94 71 64 65 68

GFSMA_sfc_rhum_009.txt.gz
RH
62 55 63 45 49 54 64 54 61 47 48 55 54 39 35 33 30 29 32 76 73 72 73 70 74 75 75 72 76 75 76 72 70 69 71 68 70 72 75 73 70 70 74
73 48 71 66 59 48 68 54 63 52 64 60 46 37 36 32 36 38 30 49 75 72 72 73 72 74 77 74 73 75 75 77 74 72 73 77 77 77 74 72 71 70 73
55 61 55 54 42 62 57 66 69 60 69 32 34 32 31 33 32 39 35 28 52 76 71 70 78 78 78 73 76 75 78 81 80 80 81 81 81 82 81 80 77 77 78
61 61 52 58 62 49 67 56 59 68 36 33 33 32 32 33 38 37 35 35 30 30 70 75 69 77 75 70 73 78 80 80 82 84 83 83 83 83 83 83 82 82 82
64 56 50 58 56 64 51 53 50 68 38 35 32 28 32 33 34 28 35 36 40 35 31 75 74 71 68 68 72 76 79 83 82 81 82 84 84 83 84 85 86 85 86
58 57 52 55 59 54 51 83 63 44 45 41 32 29 34 34 34 32 33 28 34 35 39 44 52 56 70 66 68 74 77 81 83 83 83 84 84 86 86 86 86 86 86
61 63 56 63 57 59 71 52 47 49 39 40 40 35 34 38 35 33 29 28 31 29 36 40 42 46 65 81 82 84 83 80 78 81 83 85 85 86 88 89 89 88 88
60 63 64 51 55 46 52 54 56 46 37 41 43 38 37 43 50 29 30 28 32 26 31 38 45 54 57 60 69 74 78 79 79 78 79 82 85 86 87 89 91 91 91
56 62 62 62 58 52 32 55 52 54 43 42 52 46 39 41 43 40 40 31 35 30 31 35 39 42 45 43 61 60 72 72 70 70 74 79 83 85 87 87 89 90 91
54 55 60 54 59 42 56 51 45 56 56 44 39 40 51 52 42 37 43 34 33 31 38 32 28 37 38 32 58 68 68 67 65 64 64 64 67 72 76 82 87 88 90
51 46 53 54 55 43 55 58 54 62 50 45 38 37 52 39 47 39 37 34 31 31 32 32 31 29 33 36 33 59 63 66 66 64 65 65 65 66 66 68 74 80 86
48 53 50 57 56 50 53 53 58 58 60 56 47 47 37 37 36 36 36 40 35 33 30 32 33 33 30 30 38 57 56 61 68 67 67 69 69 68 66 65 66 68 71
38 61 60 62 53 59 54 56 61 59 57 53 60 44 48 40 36 35 36 36 36 35 37 35 44 42 33 34 36 52 63 68 73 74 76 73 72 71 69 66 66 66 67
38 60 59 56 56 52 54 57 48 47 54 51 57 63 44 44 38 34 36 57 70 59 52 64 59 51 36 35 45 60 43 70 75 75 75 78 80 76 74 71 70 70 70
36 46 54 58 56 51 55 58 48 56 55 54 57 61 51 38 33 32 36 54 71 68 57 43 37 55 56 46 47 41 46 63 75 74 81 80 81 82 79 78 78 79 77
55 56 58 58 56 56 59 64 55 57 58 48 41 56 59 41 41 36 55 42 36 40 43 36 35 41 47 37 44 45 46 65 71 75 79 81 82 82 82 82 81 81 81
63 58 66 62 59 61 63 67 63 55 57 63 62 57 59 62 46 38 35 37 36 39 43 42 38 44 62 59 52 56 47 53 44 68 78 83 84 82 80 80 81 81 82
64 64 65 68 60 64 72 65 62 55 54 56 56 63 58 45 70 70 46 66 56 56 49 69 56 44 58 58 60 62 49 37 41 48 80 83 82 80 82 81 81 82 81
70 62 66 71 65 63 62 64 64 73 56 54 55 59 58 62 70 54 62 56 49 53 50 42 45 53 53 60 54 58 73 66 55 53 65 76 79 79 79 80 81 80 84
73 69 67 70 68 65 64 61 61 62 63 59 58 58 58 62 69 72 68 77 65 59 54 48 44 47 49 54 50 44 54 61 54 35 43 48 57 66 76 77 79 80 84
73 71 69 69 70 54 48 66 57 57 68 63 56 55 58 61 69 71 61 73 78 59 46 45 47 45 43 43 57 49 56 50 58 41 38 38 36 35 36 58 64 76 78
74 72 70 72 64 47 61 75 63 53 60 64 61 62 64 70 67 82 83 87 88 83 80 59 54 56 71 64 53 57 64 53 52 42 49 44 39 39 38 38 51 65 75
75 73 70 63 63 62 90 82 79 51 54 59 70 67 59 47 65 56 81 93 93 90 86 75 78 75 80 74 73 76 73 64 59 47 54 51 45 46 42 34 62 72 69
77 73 72 66 68 65 87 84 83 57 60 63 61 66 71 67 64 80 75 82 80 69 73 63 79 75 69 64 69 68 74 75 60 51 56 56 49 49 47 40 62 69 64
79 71 69 74 76 70 87 88 82 63 67 69 63 64 62 76 80 91 79 83 80 73 61 76 77 76 76 77 73 54 53 47 47 47 53 53 50 50 44 46 48 63 74
76 61 64 77 78 72 91 91 85 74 71 68 82 80 94 80 96 90 76 73 68 63 55 52 56 65 76 70 83 73 55 56 51 58 49 55 44 45 60 57 55 77 95

GFSMA_sfc_rhum_015.txt.gz
RH
95 92 95 96 97 94 94 90 85 70 75 71 65 63 48 47 50 76 92 81 81 80 77 75 76 76 76 75 77 76 75 72 72 76 75 75 76 78 78 77 77 77 78
85 88 88 84 92 88 78 78 76 79 76 77 74 61 49 49 53 61 83 84 79 78 81 78 76 76 77 74 77 76 78 77 75 73 78 82 80 80 80 77 78 76 78
80 82 84 92 85 81 83 80 73 80 74 65 74 62 54 55 52 51 60 83 81 77 80 80 81 81 79 76 73 78 82 82 81 80 80 80 82 81 82 83 83 82 80
76 82 91 90 83 82 89 87 84 82 80 80 68 63 50 56 48 47 54 73 81 71 77 76 79 79 79 76 75 78 80 84 85 84 84 84 83 85 86 87 86 85 84
81 83 88 87 81 93 84 83 80 82 74 70 58 60 65 56 53 44 55 50 55 75 80 76 79 80 71 69 74 77 78 83 84 85 86 86 86 86 86 87 88 88 88
82 88 84 90 85 88 86 83 77 76 74 74 59 56 65 61 56 64 52 46 56 68 73 71 78 85 79 73 74 76 76 80 83 84 84 84 85 87 88 89 89 88 88
84 89 89 85 79 88 76 73 81 75 78 74 70 70 75 56 60 58 54 52 51 60 63 78 82 90 89 83 84 84 79 76 77 79 82 83 83 84 86 89 91 91 90
85 81 89 89 88 89 84 74 75 84 82 76 70 85 76 63 65 47 54 47 58 59 62 67 68 84 93 94 82 74 76 76 76 80 84 86 86 86 86 86 85 87 90
85 84 88 90 83 79 82 77 77 80 80 81 68 77 82 87 70 70 54 54 58 58 64 66 59 63 90 87 74 67 70 73 65 64 66 70 72 75 79 86 89 89 88
84 84 84 88 84 84 86 80 77 78 87 81 84 70 75 72 80 67 68 57 56 53 57 66 65 58 83 86 74 69 72 73 65 60 59 61 64 65 65 68 77 82 86
83 81 86 88 79 78 88 82 77 78 85 91 87 86 78 86 75 74 79 63 64 60 59 57 67 64 64 78 76 74 73 71 69 63 61 59 60 61 62 63 64 68 70
87 88 85 80 77 79 86 81 82 83 87 89 88 89 84 76 77 77 83 75 67 63 66 63 51 59 67 76 63 69 74 72 69 68 68 63 61 59 58 59 59 60 61
90 89 83 83 80 80 84 82 76 80 82 83 87 86 87 84 76 73 69 80 72 77 60 63 66 67 58 70 68 70 73 75 74 74 72 72 70 66 63 60 60 59 59
72 79 77 77 79 74 84 86 86 84 84 84 77 80 80 82 83 72 64 75 79 84 80 66 69 68 68 64 70 76 72 78 78 80 80 79 78 77 76 72 68 65 63
72 77 80 77 75 78 79 85 89 84 86 86 79 82 80 76 79 77 72 70 69 76 82 72 71 75 69 64 72 69 63 76 80 83 83 82 83 84 82 80 79 79 77
81 75 82 75 84 75 85 91 86 88 86 90 86 87 82 83 82 79 78 75 78 72 78 78 69 65 63 61 67 68 61 75 77 84 84 82 81 83 84 84 82 82 81
84 78 78 80 78 80 84 91 86 83 90 84 84 83 87 82 81 78 85 78 76 77 80 72 73 72 76 69 65 72 73 73 72 80 83 83 84 84 85 83 85 85 82
84 77 76 80 78 75 78 84 82 75 84 90 84 84 79 70 84 82 84 87 89 88 80 81 85 76 74 75 80 82 72 59 72 68 79 82 86 87 87 88 86 84 86
78 78 79 77 79 79 79 82 80 83 89 83 87 83 83 75 87 88 85 83 88 82 91 91 88 82 77 79 75 79 83 79 74 75 78 78 76 78 82 86 86 86 86
86 75 76 77 76 80 74 80 83 86 89 86 85 84 77 75 82 89 84 87 86 94 94 95 95 95 85 72 82 86 77 83 81 66 71 73 76 76 81 86 88 88 88
82 87 84 84 85 82 73 89 82 85 91 90 86 81 73 76 80 86 91 88 94 94 97 97 95 86 74 82 79 83 88 85 82 79 78 74 69 68 68 75 81 84 88
89 86 91 88 89 79 82 85 80 84 92 91 82 80 79 80 80 85 85 85 84 92 96 98 92 88 78 91 94 95 96 95 92 77 89 64 55 59 58 62 70 75 79
86 93 87 90 90 88 93 90 88 87 82 82 81 80 79 66 84 83 87 86 93 91 86 90 91 85 92 93 93 93 95 96 98 74 90 81 76 82 69 67 71 71 76
83 95 96 96 92 95 89 94 89 88 90 87 85 89 92 87 88 86 92 94 95 95 96 98 95 82 94 91 95 92 93 94 95 90 89 95 83 88 73 72 74 78 78
95 98 98 96 95 96 94 96 88 82 79 77 87 89 93 92 90 97 92 95 93 93 86 94 94 92 92 90 93 94 90 96 96 89 82 89 72 85 81 70 57 67 71
98 98 97 94 94 92 93 89 89 75 79 92 92 92 93 90 100 100 96 98 96 91 92 91 90 88 87 81 83 86 65 92 96 95 79 91 81 68 60 62 68 78 66

GFSMA_sfc_rhum_021.txt.gz
RH
97 96 95 96 96 95 91 88 92 86 85 81 75 73 64 82 88 87 93 76 80 79 73 74 74 72 73 75 75 74 77 75 73 75 70 76 75 72 71 72 73 74 73
95 96 95 97 96 94 85 92 93 84 76 76 67 72 74 62 82 87 87 88 80 80 79 72 74 76 72 75 74 76 74 74 71 73 76 79 79 77 74 74 77 78 78
90 93 95 97 93 96 92 95 88 89 73 69 58 63 65 66 74 83 85 87 86 76 80 78 78 78 75 75 74 75 78 79 76 75 79 80 81 79 81 78 78 78 79
88 94 98 97 92 97 97 93 94 89 79 65 61 70 64 65 61 68 82 85 86 78 78 77 80 80 74 70 72 74 79 81 81 82 81 79 79 82 82 83 82 83 83
90 95 95 92 91 95 91 90 88 88 69 74 69 68 75 69 58 58 66 78 87 84 81 76 78 80 70 65 67 73 74 80 84 83 82 82 82 82 84 86 87 88 88
88 93 92 93 91 95 94 92 86 85 79 83 71 66 74 68 75 69 60 73 86 85 85 81 87 87 79 72 74 73 75 77 80 81 82 84 84 84 86 87 88 88 89
90 90 92 94 94 94 91 88 88 78 81 87 69 73 82 72 67 65 70 87 81 84 84 86 94 92 83 79 80 76 78 74 78 78 79 80 83 84 84 85 86 87 87
91 89 93 95 96 96 92 90 80 86 91 88 80 90 84 71 70 60 67 69 86 87 86 89 94 94 94 94 88 80 80 79 78 78 82 84 83 84 86 88 88 88 87
87 89 92 96 96 93 90 84 80 84 80 89 82 82 91 85 87 78 63 62 84 88 86 89 91 93 91 89 80 74 76 80 70 68 68 69 70 70 71 75 80 82 84
81 90 91 94 96 98 90 82 82 86 82 84 93 82 85 84 78 73 79 69 69 66 81 79 84 91 93 90 72 68 72 74 68 56 54 56 60 61 62 64 68 76 77
89 87 90 93 87 96 90 82 89 92 88 82 86 89 90 94 79 82 79 75 79 75 70 79 76 77 94 89 82 72 72 70 70 65 57 52 52 54 54 56 59 61 63
98 93 89 93 88 89 87 84 89 88 94 93 94 95 88 73 84 80 85 86 82 73 78 75 72 76 85 94 78 68 75 74 71 70 69 67 59 56 53 52 54 55 57
98 96 94 97 89 88 89 88 89 86 92 93 89 90 94 88 86 83 72 86 78 79 78 77 78 76 71 88 89 76 75 79 76 76 74 73 74 71 65 63 62 61 59
90 86 89 91 88 83 89 89 93 91 91 90 88 91 92 90 86 80 69 82 83 86 87 70 79 84 75 77 82 78 83 84 82 83 83 80 80 79 79 78 74 72 70
86 91 89 89 88 81 86 90 95 92 93 92 92 94 92 88 90 89 89 75 66 76 77 72 77 74 86 80 77 82 88 80 83 85 86 86 84 83 83 83 83 83 82
86 91 91 87 86 82 86 91 95 92 95 96 93 92 93 91 84 90 86 84 78 71 72 75 75 75 71 70 72 84 83 82 82 85 88 88 88 87 86 86 86 86 85
90 87 88 85 85 83 85 89 95 94 92 94 94 93 88 90 91 91 92 92 89 83 76 78 86 78 75 80 75 75 75 82 83 84 86 88 89 89 88 88 87 87 88
87 84 86 86 84 81 80 85 91 86 88 92 92 94 92 85 93 93 89 89 76 88 83 78 84 85 82 79 78 85 78 72 79 75 82 86 90 91 92 92 93 93 93
85 84 84 85 85 83 84 80 84 87 86 86 87 90 93 91 91 91 91 90 89 92 96 92 87 95 91 90 84 83 81 84 76 76 75 78 80 83 85 86 84 86 92
89 85 84 84 82 81 81 83 82 88 88 85 90 88 88 88 88 74 80 84 91 94 96 96 96 96 94 89 89 91 84 90 85 74 76 81 84 83 81 82 81 81 84
83 86 86 86 85 82 79 83 89 91 91 90 88 95 93 89 83 78 84 91 93 97 98 98 98 96 93 94 93 92 90 90 94 94 91 87 89 82 75 78 74 76 82
86 90 90 87 90 83 85 87 82 92 92 94 96 93 93 93 89 88 84 83 89 92 96 98 98 95 86 94 93 96 98 97 97 92 95 91 87 78 78 80 77 83 86
90 96 91 90 93 89 90 90 88 93 96 96 91 93 90 84 92 90 91 91 93 91 94 95 91 94 95 94 95 95 97 97 98 96 96 97 92 85 77 75 81 83 85
95 97 96 94 91 91 94 93 91 92 96 94 92 93 90 89 95 94 93 94 97 98 98 98 94 93 95 94 96 95 95 96 97 97 96 98 92 91 85 84 82 82 82
90 97 96 96 95 96 98 96 96 94 97 96 96 92 95 95 95 96 95 96 95 96 99 95 95 96 99 98 98 99 99 100 99 97 96 96 94 94 93 85 76 78 80
94 96 97 96 98 97 100 98 96 98 99 97 98 96 96 96 98 98 96 97 96 95 96 94 93 92 89 85 89 97 97 98 97 97 94 95 95 95 92 83 75 70 73

GFSMA_sfc_rhum_024.txt.gz
RH
94 94 94 93 93 92 87 86 87 81 82 76 73 65 64 71 72 73 80 76 79 79 72 72 74 73 70 73 75 73 74 74 74 74 71 76 74 73 71 70 71 74 72
93 94 94 94 94 95 88 91 88 81 79 74 71 73 69 63 74 77 74 73 78 79 77 71 72 74 71 74 73 75 74 77 74 74 74 77 79 76 73 72 74 75 77
93 92 93 93 92 95 91 89 83 85 75 65 66 65 64 65 67 77 76 73 71 74 77 74 75 74 74 72 75 75 79 79 75 73 78 79 79 79 80 77 75 78 79
90 93 95 95 90 94 93 89 89 85 78 70 70 71 68 66 64 75 75 75 76 66 71 76 79 79 71 69 70 75 78 80 81 81 81 79 78 80 80 82 81 82 81
90 96 91 91 90 94 88 86 84 85 74 73 68 70 72 69 67 54 64 71 74 74 70 75 79 80 68 64 68 73 74 80 83 84 83 84 83 83 84 86 86 86 87
88 92 90 93 90 91 88 87 85 80 78 80 62 68 74 70 72 67 61 66 75 75 72 74 77 77 76 70 72 69 70 73 79 81 83 84 85 84 85 86 87 87 87
90 92 91 93 89 92 88 85 83 78 76 81 73 72 75 69 64 65 73 76 76 74 72 75 77 77 78 79 78 74 71 70 72 74 79 81 81 83 82 85 84 83 85
90 88 92 92 92 91 89 88 82 80 82 79 78 78 77 70 64 60 69 70 77 75 73 78 82 81 81 81 74 79 80 78 76 76 79 83 84 84 86 87 88 86 86
89 90 91 93 93 91 88 88 83 81 79 85 78 78 79 76 75 70 66 68 77 76 74 78 79 80 79 74 72 69 76 80 70 67 67 69 70 71 71 73 78 79 81
89 90 90 91 93 92 90 87 81 82 83 82 84 77 79 79 72 68 69 67 65 64 71 70 75 78 79 73 66 65 72 71 68 55 53 54 57 59 61 64 69 74 76
89 87 90 92 92 91 92 88 87 89 82 82 80 80 82 78 76 72 69 66 69 67 64 70 66 70 79 75 70 66 71 69 68 65 57 50 50 51 51 54 58 61 62
90 90 90 90 91 90 92 88 88 89 90 84 82 84 78 74 73 72 73 76 69 67 68 66 67 68 68 77 72 70 71 74 72 70 69 66 59 58 56 56 56 57 57
96 94 92 92 89 89 88 89 90 88 89 87 88 81 82 77 75 74 70 73 70 69 69 67 67 68 65 72 76 78 77 79 78 79 77 73 73 72 66 64 64 63 62
87 92 91 89 90 88 86 89 85 82 88 86 88 86 81 79 76 73 71 74 72 71 71 66 66 70 71 69 71 82 72 83 84 83 83 82 79 77 80 78 76 74 72
84 91 90 90 91 87 87 89 84 86 87 87 87 87 81 79 79 75 72 71 71 68 67 64 64 68 72 70 68 68 75 83 86 87 87 88 87 84 83 82 82 82 83
87 91 91 90 91 88 87 89 88 88 90 85 82 89 88 80 79 78 76 76 70 70 66 65 66 68 66 64 66 70 70 80 84 85 88 89 89 88 88 86 87 86 85
88 90 91 92 91 89 88 87 88 88 88 90 88 88 88 88 78 78 79 78 74 70 68 68 72 72 72 71 68 69 65 70 67 86 87 89 91 92 92 90 90 90 89
88 87 90 91 90 88 87 87 86 83 86 88 87 91 86 77 88 87 81 86 79 81 73 81 75 72 76 74 74 76 68 59 64 71 83 85 87 87 89 90 92 94 94
89 86 88 90 90 88 88 86 85 85 85 84 84 87 87 88 89 84 84 82 81 79 90 77 74 77 76 74 75 77 76 75 64 76 78 78 80 83 85 83 82 84 85
88 88 88 89 88 87 85 84 84 87 86 84 87 86 86 86 87 88 85 87 85 91 90 96 86 86 77 83 78 80 76 73 70 60 69 76 80 81 80 82 83 85 86
86 85 87 87 87 84 78 86 86 87 89 88 89 89 87 87 89 85 78 86 92 88 95 96 95 88 82 88 92 90 85 85 83 76 70 68 68 65 66 72 69 78 83
88 89 88 87 88 79 85 89 84 89 89 91 93 92 90 91 92 90 85 84 86 88 94 97 98 96 85 89 86 95 94 91 83 77 76 69 71 67 65 61 73 81 86
90 93 89 88 90 88 91 91 89 90 93 93 93 93 93 86 90 88 92 88 90 88 90 92 94 96 91 91 95 94 96 91 84 76 81 79 73 72 66 55 81 85 87
88 92 93 92 90 89 94 92 91 89 93 93 92 92 92 90 92 92 92 91 91 91 94 95 93 89 90 92 93 91 88 90 87 80 84 90 72 69 65 62 82 83 85
88 93 93 94 94 93 96 96 94 92 95 94 93 93 93 92 95 94 92 93 92 96 98 97 96 94 96 98 96 93 95 95 86 72 78 74 69 69 66 61 59 79 83
91 92 95 94 92 92 99 97 95 95 97 97 97 95 96 93 97 97 93 94 96 95 96 98 93 92 88 85 97 88 77 73 78 74 73 73 70 69 54 61 58 54 52

GFSMA_sfc_rhum_027.txt.gz
RH
66 65 68 61 63 60 54 59 73 56 69 64 64 48 43 48 48 44 46 74 76 74 69 74 71 74 71 74 74 70 73 71 72 72 72 74 74 74 74 69 70 73 72
69 63 65 62 59 61 58 62 67 61 69 59 55 54 49 44 52 53 44 49 70 73 72 69 72 74 70 71 72 75 73 76 75 73 76 72 76 75 72 71 72 74 75
72 74 64 61 60 67 74 73 67 66 47 46 54 47 43 51 43 52 48 44 47 68 70 69 70 72 74 70 74 74 77 78 78 74 75 75 77 78 78 77 75 74 77
73 74 66 62 62 67 71 63 77 71 55 56 56 50 45 47 55 50 48 49 48 39 61 71 72 71 69 70 72 76 77 79 80 80 80 78 77 80 80 81 80 80 80
70 70 62 61 71 63 63 69 60 62 54 50 52 45 46 48 58 38 48 51 51 48 44 66 74 76 67 64 70 71 72 77 82 81 82 82 82 82 84 85 85 86 85
68 70 62 69 68 62 64 62 71 61 54 53 40 47 47 49 47 46 45 43 52 54 48 56 53 52 73 64 66 66 67 69 74 76 80 85 85 85 86 85 86 86 86
72 76 63 69 69 67 69 73 65 66 52 57 49 50 48 48 46 46 47 43 52 50 52 53 50 49 52 71 73 71 72 71 69 69 73 78 82 81 81 83 82 82 81
74 72 73 68 72 63 77 75 72 57 52 56 50 50 47 46 42 40 49 46 54 43 43 48 59 64 57 52 63 74 79 77 76 76 77 79 80 81 82 84 84 87 91
72 76 75 70 74 70 62 74 70 68 52 60 62 49 48 44 48 44 53 48 55 45 44 49 52 58 61 48 48 54 71 76 64 59 59 61 64 65 66 69 75 76 78
68 70 74 74 76 65 72 72 68 64 63 55 57 55 62 59 44 46 44 49 50 46 49 44 45 50 56 43 55 58 60 64 60 52 51 52 54 56 58 60 64 70 72
70 67 74 75 76 68 74 76 75 74 58 50 51 53 60 53 60 47 44 45 48 44 44 46 41 43 52 49 43 53 65 69 68 57 51 48 50 50 50 52 54 57 58
59 72 71 76 77 73 76 73 76 75 68 61 54 55 46 46 46 48 48 52 45 45 42 41 45 44 43 46 52 70 67 71 70 70 69 63 60 60 58 58 59 59 59
57 68 76 78 70 78 74 75 80 75 72 64 72 53 52 48 47 45 45 47 45 44 44 44 43 44 43 46 47 72 76 77 78 78 76 73 72 69 68 66 64 63 64
56 66 73 71 74 74 74 76 68 64 68 66 72 69 53 53 51 48 45 46 48 46 47 49 40 42 47 46 52 78 54 84 86 86 85 83 80 77 78 77 76 73 70
54 64 70 73 74 75 75 77 62 72 70 70 68 72 60 52 52 48 47 44 42 43 42 45 40 50 47 47 54 51 53 73 88 88 88 87 85 84 83 83 83 83 83
69 66 72 72 73 76 76 80 70 72 74 63 58 72 71 54 55 53 51 50 49 45 45 40 43 46 50 46 55 54 52 73 83 88 90 90 89 88 87 88 89 88 88
73 72 74 72 73 75 77 80 76 71 75 73 70 72 74 71 54 52 53 51 51 50 46 43 46 53 63 58 50 52 49 52 45 85 88 89 90 91 90 88 89 88 89
72 74 74 74 73 73 76 79 76 69 74 73 70 73 71 60 74 70 57 68 58 59 49 67 54 52 63 62 61 64 52 40 46 67 86 89 88 88 88 90 90 90 88
75 69 73 76 74 73 76 78 76 75 73 71 69 71 69 70 74 60 64 58 53 60 62 53 51 52 52 53 59 64 64 59 52 70 82 80 80 82 85 84 84 82 83
76 75 75 75 73 71 73 72 74 75 74 70 70 69 68 70 72 81 71 73 65 60 64 60 54 52 55 59 58 55 52 54 54 53 58 70 78 77 82 80 81 84 87
75 75 76 75 74 68 61 74 74 74 76 74 73 73 70 71 78 79 60 71 73 68 58 59 59 59 56 66 78 60 53 56 61 71 65 51 48 45 49 76 68 72 82
78 77 76 76 76 62 76 87 77 72 75 78 77 76 73 83 84 88 86 82 75 75 74 58 56 61 72 86 75 56 53 56 54 82 79 55 58 51 49 48 68 78 84
79 80 78 76 78 76 86 90 89 67 73 75 77 75 72 64 84 73 91 87 86 86 79 74 74 72 80 85 73 79 72 66 66 63 68 54 49 52 43 38 75 83 87
80 79 79 79 78 74 90 91 89 74 75 75 75 76 77 75 79 81 73 78 74 77 75 62 71 71 81 70 72 72 79 76 67 60 69 61 44 46 42 38 68 81 87
78 78 76 81 82 78 94 93 90 74 73 78 76 76 77 80 90 93 80 80 81 78 87 91 91 91 90 92 77 62 68 67 55 48 55 52 43 46 41 40 35 71 76
75 67 75 78 83 79 98 95 89 61 72 69 79 82 94 85 97 96 79 78 79 72 76 78 84 92 91 85 98 79 54 51 44 46 52 46 39 40 39 29 35 31 28

GFSMA_sfc_rhum_030.txt.gz
RH
52 48 50 43 47 42 40 48 44 46 53 63 44 34 30 33 32 27 37 73 73 70 67 69 71 71 73 74 73 72 71 65 69 71 70 71 72 72 71 68 68 70 72
54 45 47 43 42 42 42 57 50 53 44 41 50 39 30 30 36 35 30 47 69 71 66 68 70 72 71 71 72 71 71 72 72 72 74 71 75 74 71 70 69 71 72
60 64 61 48 43 51 56 56 50 45 42 34 43 32 29 37 33 35 32 32 50 69 68 65 69 74 74 69 72 73 75 74 76 77 73 76 73 77 76 76 74 72 73
62 62 61 47 46 59 49 48 46 43 36 38 38 33 30 35 38 36 33 35 33 37 62 65 66 70 69 71 70 76 75 76 77 79 77 76 74 77 80 82 81 79 79
58 60 49 47 57 46 49 47 45 47 40 37 37 31 30 34 42 26 35 37 39 32 34 68 67 67 64 64 66 67 71 75 78 79 79 80 81 82 81 82 82 82 82
56 59 48 54 51 45 46 47 56 47 43 40 29 30 32 35 31 31 30 28 38 38 34 46 47 58 67 63 65 64 65 67 70 72 75 78 81 83 84 83 83 84 84
60 65 51 57 55 54 64 59 53 58 41 44 34 35 36 35 34 31 28 27 33 31 33 36 36 35 51 69 70 68 69 69 68 69 75 77 77 79 79 82 82 81 77
62 62 68 59 61 48 67 66 66 45 42 36 36 35 37 35 31 28 30 30 32 27 30 35 44 47 45 50 56 70 76 74 74 74 74 74 75 76 78 80 80 84 87
59 65 65 56 65 60 52 66 64 61 41 41 49 40 37 34 33 33 41 31 39 30 32 37 38 45 45 36 46 54 68 70 55 53 54 57 60 62 64 67 69 69 70
56 57 64 62 68 51 60 76 57 56 61 42 42 40 51 51 35 38 34 36 35 34 37 32 34 37 42 32 47 59 61 61 55 51 51 53 54 54 55 57 60 62 62
58 52 60 64 67 57 61 68 66 70 52 39 36 40 47 38 45 37 36 37 37 33 34 36 31 31 39 36 35 52 60 58 52 50 49 49 52 52 52 52 53 55 56
48 59 57 65 66 62 64 64 70 70 64 53 37 42 35 36 35 37 36 40 36 36 33 32 35 33 33 34 44 66 68 68 66 60 57 56 56 58 57 56 56 57 58
40 54 64 66 59 69 63 65 73 67 68 59 63 39 36 36 33 32 32 33 34 32 35 32 32 33 32 34 36 60 74 74 74 74 72 69 66 64 64 63 62 61 60
42 50 58 60 63 62 64 66 60 59 62 60 63 59 36 37 37 35 35 34 37 34 34 45 31 31 32 34 45 78 46 83 84 85 84 82 77 76 76 75 74 72 70
41 49 54 62 60 62 65 69 57 65 59 64 58 62 49 34 36 34 34 33 34 35 34 40 32 37 33 33 46 43 45 80 86 88 87 87 87 84 83 82 84 85 85
58 51 57 59 60 62 65 71 61 64 68 55 47 57 60 36 39 37 35 34 34 35 36 31 32 34 37 33 50 45 41 69 82 88 90 90 90 86 85 85 87 87 88
62 62 63 61 59 62 66 71 68 60 70 68 61 57 64 60 37 35 37 36 37 37 38 32 34 43 56 54 43 43 41 42 38 84 88 89 90 88 87 85 85 85 84
63 66 64 65 62 59 64 69 69 58 66 68 66 66 62 50 65 56 39 59 47 46 38 57 45 41 59 57 54 58 43 32 34 75 81 86 87 88 87 88 88 86 86
68 58 63 68 66 62 64 65 67 66 63 65 64 66 64 59 64 48 54 44 43 47 48 41 40 40 40 44 54 58 55 54 39 67 70 79 85 84 85 86 86 86 84
70 68 66 67 65 62 60 60 62 65 64 62 64 63 62 62 64 66 56 62 53 45 51 45 40 38 43 48 46 42 47 48 42 34 51 61 72 76 85 86 84 83 83
68 68 68 66 66 57 49 64 63 63 66 65 64 64 63 65 72 68 53 63 67 58 39 42 44 40 42 42 53 43 48 56 45 46 44 42 44 51 48 79 63 82 84
71 71 69 68 67 50 63 76 68 60 66 69 68 66 65 79 78 82 80 80 68 68 68 41 41 46 62 52 49 49 48 44 44 44 54 46 44 42 38 35 68 75 82
72 75 71 69 70 68 74 80 83 56 63 66 69 67 62 53 75 66 86 87 85 89 80 67 67 60 60 70 73 68 66 58 55 43 64 51 38 38 35 31 71 73 82
74 73 73 73 71 66 83 84 83 66 63 64 66 68 70 66 67 70 68 73 66 63 67 54 63 61 70 63 70 66 71 70 61 50 63 59 39 35 34 33 68 72 82
72 70 68 73 75 72 89 89 86 65 62 68 65 65 67 70 80 89 72 75 76 68 78 84 89 88 85 86 74 52 58 74 65 50 56 45 37 35 35 34 32 65 59
68 58 64 68 75 73 94 92 84 53 62 54 69 74 86 73 91 93 78 75 82 74 78 81 79 82 88 79 93 69 51 51 43 36 45 42 33 33 36 29 28 27 27

GFSMA_sfc_rhum_033.txt.gz
RH
55 63 55 63 56 60 63 56 48 51 47 52 43 42 30 27 28 44 42 71 71 67 69 68 70 71 72 73 72 72 67 64 70 71 70 70 70 69 69 67 66 68 72
50 64 58 68 65 69 77 46 49 68 62 46 43 39 30 30 34 37 41 53 75 70 66 68 71 72 71 73 74 71 70 72 69 69 70 71 72 72 70 69 67 69 71
56 65 56 62 70 74 52 59 52 64 46 38 39 29 38 40 32 37 46 46 54 75 68 67 70 73 73 69 72 72 73 73 74 74 74 73 73 74 76 75 75 73 72
57 59 49 48 68 56 41 67 42 36 46 31 34 30 33 31 34 31 33 52 53 45 67 70 69 70 73 72 71 73 74 77 76 78 80 77 73 74 78 79 77 78 79
55 57 86 78 56 56 55 39 64 47 35 33 34 29 32 31 43 27 32 36 38 57 52 73 74 70 66 65 64 66 72 74 76 77 76 78 79 80 82 81 80 82 81
53 57 60 54 48 54 71 70 57 40 41 35 26 27 31 30 30 30 30 33 33 32 50 52 56 64 70 63 64 62 63 64 68 72 75 77 77 81 83 84 84 84 84
56 61 53 58 51 64 53 54 51 54 46 38 33 33 33 31 31 27 25 28 30 41 36 34 57 59 63 72 69 66 66 66 66 68 76 76 77 77 76 80 81 82 81
56 57 63 74 56 84 61 62 59 67 36 34 40 33 37 33 28 27 27 27 31 26 29 33 37 54 70 75 58 71 74 74 74 73 72 73 75 76 77 77 78 81 81
54 62 60 57 58 58 82 64 58 56 40 36 51 44 42 59 32 30 35 32 35 28 31 35 37 41 48 40 49 58 70 67 59 54 55 58 62 62 63 64 66 66 67
53 53 58 56 64 52 76 60 52 55 59 43 37 36 52 54 68 63 35 33 34 32 35 32 34 37 40 34 54 64 69 68 63 57 55 56 57 56 55 56 57 58 58
56 49 59 61 65 57 65 68 66 68 50 45 36 36 42 33 40 46 68 58 35 31 35 35 30 40 38 35 37 54 68 67 65 60 55 54 54 53 53 53 54 56 56
49 60 54 65 73 64 58 61 67 67 67 52 39 38 35 37 37 38 36 45 45 55 30 31 34 32 32 35 42 65 70 68 66 61 55 53 54 55 55 54 56 57 59
37 56 65 71 60 69 61 65 74 66 67 60 65 39 34 34 32 32 33 34 34 31 34 30 30 32 30 33 41 56 72 72 71 71 70 68 63 61 60 60 61 62 62
37 49 63 61 63 62 64 66 58 59 64 61 63 65 37 35 33 34 35 35 38 34 34 43 30 30 33 33 49 70 50 79 77 79 78 75 74 75 76 75 73 70 70
36 47 56 63 62 62 65 69 56 67 62 65 64 65 52 32 32 32 32 33 36 38 36 47 34 40 32 33 46 40 43 79 84 85 85 85 86 83 82 83 82 83 84
57 52 55 57 62 64 65 72 61 64 70 56 48 65 65 38 35 34 32 32 33 35 37 30 34 34 38 32 52 43 41 75 85 87 87 88 88 86 86 85 84 86 86
61 62 63 62 63 64 66 72 70 62 70 71 63 62 68 68 36 32 34 34 34 36 38 32 31 48 54 53 48 48 44 48 42 82 84 88 89 86 85 84 84 85 83
64 65 64 66 64 63 65 70 69 56 65 69 67 67 62 50 70 65 38 61 47 49 39 66 50 44 60 64 63 65 47 32 36 77 84 84 87 88 87 86 88 86 85
68 59 65 68 68 64 66 68 70 68 63 64 67 70 67 66 70 52 56 45 41 47 47 46 43 39 41 48 58 64 65 60 43 76 78 79 81 84 85 86 86 86 86
70 68 65 67 67 65 63 63 66 69 68 62 66 67 67 67 70 72 63 68 59 48 52 45 42 38 39 50 47 48 50 51 49 36 53 53 65 78 81 84 84 83 83
68 68 69 66 67 62 52 65 64 66 70 68 65 66 65 68 74 71 57 66 70 57 40 40 45 44 40 44 60 50 54 44 51 42 44 43 56 46 59 82 65 81 83
71 71 70 68 67 54 64 75 68 62 68 71 70 68 66 79 78 80 78 81 70 73 71 48 45 50 69 55 48 46 48 49 56 75 52 49 55 57 44 43 75 80 86
72 75 71 69 70 68 75 77 80 58 64 67 71 69 63 49 76 66 83 80 84 83 78 74 75 67 71 65 68 73 74 70 60 60 69 53 45 43 35 40 77 79 84
74 73 72 73 72 66 82 82 80 63 64 66 67 70 71 65 69 70 70 71 70 69 75 59 70 67 67 65 67 72 76 76 72 58 72 59 46 41 34 34 73 76 72
72 72 70 74 76 72 87 87 84 62 62 68 65 66 68 70 76 85 74 77 78 74 75 86 88 83 81 83 71 59 58 74 73 57 64 53 42 38 34 34 39 74 69
70 60 67 70 76 74 89 90 84 54 62 58 68 70 84 71 88 88 77 79 83 78 71 81 87 88 88 85 86 73 54 60 63 63 61 46 40 36 37 32 32 36 33

GFSMA_sfc_rhum_036.txt.gz
RH
90 83 81 82 78 80 88 84 77 67 70 60 62 52 42 39 46 51 68 78 76 76 70 70 71 72 72 73 70 70 64 68 70 69 70 69 69 70 69 67 65 66 70
80 77 79 71 76 74 86 75 75 77 67 65 66 57 46 48 54 51 61 76 79 76 76 73 72 72 71 73 74 70 72 66 67 70 70 71 74 73 72 71 69 68 72
75 75 75 79 78 84 75 73 69 79 69 51 56 55 50 45 50 52 52 59 72 77 75 75 77 77 73 72 72 73 74 76 75 75 78 76 78 76 77 76 76 77 76
68 74 80 82 77 75 77 66 76 74 75 64 55 56 55 50 49 58 55 56 66 60 74 76 77 78 73 71 71 73 75 78 80 81 81 81 79 80 81 83 82 81 82
67 77 84 89 81 75 78 69 69 66 68 59 48 60 57 49 51 37 57 59 62 60 62 77 80 79 70 68 70 71 74 78 81 82 81 81 82 83 84 84 84 84 85
67 76 84 77 81 74 75 74 74 68 66 64 35 46 53 55 56 58 48 48 62 64 64 70 81 76 75 72 70 66 65 67 71 74 76 80 80 82 84 85 85 86 84
71 77 85 89 76 76 78 72 70 71 72 62 66 61 61 48 48 48 53 49 59 52 60 69 75 71 75 75 74 72 67 66 71 76 78 81 78 78 81 83 84 83 83
72 74 81 80 76 86 82 74 74 83 69 61 73 66 70 64 49 46 54 46 50 51 47 64 67 78 78 80 81 79 80 78 76 75 75 77 78 78 78 79 80 82 82
69 76 76 82 81 82 90 83 76 76 76 63 68 76 77 68 69 58 54 53 51 59 56 60 62 75 77 70 78 79 78 75 66 56 58 65 70 70 69 70 71 71 72
68 72 76 78 81 83 83 86 76 78 76 70 65 60 69 74 75 66 65 61 58 48 60 61 59 62 73 66 64 70 73 71 69 63 59 59 64 63 59 61 66 68 70
72 64 74 78 80 78 86 83 81 81 79 78 68 66 68 71 67 75 71 69 62 63 61 62 58 61 62 60 65 70 72 71 70 70 68 65 62 58 56 55 57 58 64
66 73 72 77 81 80 83 85 84 83 85 82 75 70 69 70 70 70 73 68 69 68 64 61 60 66 62 61 49 65 72 73 72 69 68 68 67 62 55 54 55 58 61
62 72 77 82 78 81 82 81 85 85 84 83 79 77 71 68 64 67 68 68 68 68 64 60 65 64 51 67 64 64 73 76 75 73 71 69 69 69 67 65 62 61 62
55 70 72 74 77 78 78 81 80 79 82 82 82 82 79 71 64 64 67 72 70 68 68 62 62 66 66 64 66 70 68 79 77 77 77 76 74 74 74 75 76 75 72
52 66 71 73 74 75 78 82 74 82 81 82 82 84 81 74 66 65 67 66 72 75 73 73 66 60 68 69 68 63 69 76 82 82 82 81 81 80 80 81 82 83 82
66 68 72 72 74 75 78 82 78 79 83 78 74 82 83 72 68 67 66 68 68 70 74 70 68 66 58 58 72 66 62 79 82 85 85 86 86 85 85 86 86 84 85
75 70 76 75 75 75 76 81 80 77 81 82 77 81 82 81 76 69 66 68 71 70 72 69 69 77 74 71 68 68 75 77 78 85 85 87 88 86 86 86 85 84 83
70 74 73 74 75 74 75 78 79 69 77 81 78 78 80 68 84 83 79 75 71 72 74 78 73 80 79 78 78 80 65 45 66 74 85 84 86 87 87 88 87 87 84
74 68 72 76 74 73 76 76 77 78 72 78 78 80 78 79 83 73 79 75 72 73 75 75 78 76 80 80 81 80 81 79 63 78 81 82 85 85 85 87 85 85 85
75 72 72 74 73 72 73 73 74 78 78 72 77 78 78 77 79 82 76 80 77 77 77 78 78 75 77 80 75 77 85 81 78 52 58 64 73 82 81 84 83 84 87
71 74 74 72 73 70 63 73 73 76 79 77 73 76 76 77 79 77 72 81 79 78 77 68 71 76 76 77 75 79 79 72 82 77 75 60 66 74 69 82 76 83 86
75 75 76 75 73 62 73 79 74 71 77 79 79 75 75 82 83 82 81 78 78 78 75 63 67 71 78 74 82 79 79 81 79 79 83 76 73 76 65 71 75 80 85
76 79 77 76 76 73 80 81 82 66 72 75 78 77 72 62 82 78 83 81 84 81 74 73 76 78 84 81 81 85 83 85 84 87 82 86 79 77 76 65 82 84 86
77 78 78 78 78 73 83 84 82 69 70 72 74 76 77 75 76 77 78 77 74 77 81 71 75 75 84 82 81 86 86 86 86 85 87 86 80 82 69 72 83 81 78
76 77 75 79 80 78 88 88 86 69 68 73 72 74 75 77 79 88 80 82 79 77 80 84 81 84 82 85 84 82 87 86 89 87 83 83 81 77 68 73 78 81 78
76 70 74 75 80 78 89 92 88 66 69 65 72 75 84 75 85 91 80 82 86 80 78 76 80 89 92 91 90 85 78 83 86 85 81 82 80 72 70 68 77 69 73